Terminal Aerodrome Forecast
Issued by NWS

Home | Current Version | Previous Version | Text Only | Print | Product List | Glossary On
Versions: 1 2 3 4 5 6 7 8 9 10 11 12
000
FTUS45 KLKN 310520
TAFWMC
TAF
KWMC 310520Z 3106/0106 VRB03KT P6SM SCT150 SCT250
     FM312000 24012G22KT P6SM SCT250
     FM010200 23007KT P6SM SKC=

USA.gov is the U.S. government's official web portal to all federal, state and local government web resources and services.